Location: Macksville High School
(37.9611°N, 99.9654°W)
Time: 00:53:12
(UTC+00:00)

Cosmos 1908 - Pass Details

Date: 17 January 2021
Orbit: 512 x 529 km, 82.5° (Epoch: 07 March)

Event Time Altitude Azimuth Distance (km) Brightness Sun altitude
Rises 13:11:12 0° 197° (SSW) 2,609 6.8 -8.6°
Reaches altitude 10° 13:13:22 10° 203° (SSW) 1,727 5.8 -8.2°
Maximum altitude 13:17:03 50° 280° (W) 662 3.3 -7.5°
Drops below altitude 10° 13:20:46 10° 356° (N) 1,741 5.6 -6.8°
Sets 13:22:57 0° 2° (N) 2,633 6.6 -6.4°
